WISE

Last updated on July 6, 2021, 3:27 p.m. UTC

1 36119U 09071A   21186.66787351  .00001459  00000-0  51223-4 0  9994
2 36119  97.2823 222.8868 0004293  96.4953 263.6777 15.30977776642410
UTC
Height (km)
Latitude
Longitude
Inclination
Orbital Period
UTC large
Height (km)
Speed (km/s)
/
Latitude / Longitude
Inclination (degrees)
Orbital Period (minutes)
Azimuth
Elevation
Range (km)
Doppler Factor
iOS Compass Heading
iOS Angle